Regional Weather Roundup
Issued by NWS

Home | Current Version | Previous Version | Graphics & Text | Print | Product List | Glossary On
Versions: 1 2 3 4 5 6 7 8 9 10 11 12 13 14 15 16 17 18 19 20 21 22 23 24 25 26 27 28 29 30 31 32 33 34 35 36 37 38 39 40 41 42 43 44 45 46 47 48 49 50
000
ASUS43 KDTX 230501
RWRMI
MICHIGAN HOURLY REGIONAL WEATHER ROUNDUP
NATIONAL WEATHER SERVICE DETROIT/PONTIAC MI
1200 AM EST FRI FEB 23 2018

NOTE: "FAIR" INDICATES FEW OR NO CLOUDS BELOW 12,000 FEET WITH NO
SIGNIFICANT WEATHER AND/OR OBSTRUCTION TO VISIBILITY.

MIZ047>049-052>055-059>063-066>070-074>076-081>083-230600-
SOUTHEAST LOWER MICHIGAN

CITY           SKY/WX    TMP DP  RH WIND       PRES   REMARKS
ADRIAN         CLOUDY    34  30  85 E14       30.43F WCI  25
ALMA           CLOUDY    30  28  90 E9        30.45F WCI  22
ANN ARBOR      CLOUDY    34  30  85 E10       30.43F WCI  26
BAD AXE        CLOUDY    31  27  86 E6        30.49F WCI  25
CARO           FAIR      29  26  87 NE5       30.47F WCI  24
DETROIT CITY   CLOUDY    33  28  81 NE7       30.47F WCI  27
DETROIT        CLOUDY    35  30  82 E7        30.46F WCI  29
FLINT          CLOUDY    31  26  82 E13       30.44F WCI  21
GROSSE ILE     CLOUDY    34  32  92 NE6       30.46S WCI  29
HILLSDALE      CLOUDY    32  30  93 E12G20    30.37F WCI  23
HOWELL         CLOUDY    33  29  86 E9        30.42F WCI  25

CITY           SKY/WX    TMP DP  RH WIND       PRES   REMARKS
JACKSON        CLOUDY    35  29  78 E8        30.40F WCI  29
LAMBERTVILLE   CLOUDY    34  31  89 E7G17     30.43F WCI  28
LANSING        CLOUDY    33  26  75 E8        30.44F WCI  26
LAPEER         CLOUDY    31  27  86 E3        30.47F
MASON          CLOUDY    35  26  70 E9        30.43F WCI  28
MONROE         CLOUDY    35  31  86 E8        30.44F WCI  28
MT. CLEMENS    CLOUDY    33  33  99 E8        30.46F WCI  26
PONTIAC        CLOUDY    32  28  85 E9        30.43F WCI  24
PORT HOPE        N/A     32  28  85 E17       30.48F WCI  21
PORT HURON     CLOUDY    32  28  86 E7        30.49F WCI  26
TRI CITIES     CLOUDY    30  25  81 E9        30.47F WCI  22
MIDLAND        CLOUDY    31  26  83 E9        30.47F WCI  23
TROY           CLOUDY    33  29  85 E8        30.47F WCI  26
SAGINAW HB     CLOUDY    30  28  93 E8        30.46F WCI  23
$$
MIZ043>046-050>051-056>058-064>065-071>073-077>080-230600-
SOUTHWEST LOWER MICHIGAN

CITY           SKY/WX    TMP DP  RH WIND       PRES   REMARKS
BATTLE CREEK   CLOUDY    36  29  75 E10G22    30.39F WCI  28
BENTON HARBOR  CLOUDY    39  33  79 SE16      30.34F WCI  30
BIG RAPIDS     CLOUDY    29  20  68 E12G18    30.40F WCI  20
COLDWATER      CLOUDY    35  33  93 E15G21    30.36F WCI  25
HOLLAND        CLOUDY    35  27  72 E15       30.34F WCI  25
GRAND RAPIDS   CLOUDY    33  26  75 E17       30.39F WCI  22
IONIA          CLOUDY    32  26  80 E10       30.42S WCI  24
KALAMAZOO      CLOUDY    38  30  73 E7G17     30.37F WCI  33
LUDINGTON      CLOUDY    33  22  64 E8        30.37F WCI  26
MARSHALL       CLOUDY    35  29  80 E10G17    30.39F WCI  27
MOUNT PLEASANT CLOUDY    31  23  72 E7        30.45F WCI  24
MUSKEGON       CLOUDY    35  23  61 E13G25    30.36F WCI  26
SOUTH HAVEN    CLOUDY    39  32  76 SE13G21   30.33F WCI  31
$$
MIZ016>042-230600-
NORTHERN LOWER MICHIGAN

CITY           SKY/WX    TMP DP  RH WIND       PRES   REMARKS
ALPENA         CLOUDY    30  23  75 SE8       30.52F WCI  22
BEAVER ISLAND  CLOUDY    28  22  78 E14       30.44F WCI  17
BELLAIRE       CLOUDY    32  19  58 E3        30.44F
CADILLAC       CLOUDY    29  16  58 E12G18    30.38F WCI  19
CHARLEVOIX     CLOUDY    30  19  64 E12       30.46F WCI  21
FRANKFORT      CLOUDY    35  19  51 E6        30.38F WCI  30
GAYLORD        CLOUDY    26  18  71 SE8       30.43F WCI  18
GRAYLING       CLOUDY    28  18  68 E12       30.42F WCI  17
HARBOR SPRINGS CLOUDY    28  17  66 E12       30.46F WCI  17
HOUGHTON LAKE  CLOUDY    28  16  60 E9        30.43F WCI  19
MANISTEE       CLOUDY    34  17  50 E10G17    30.37F WCI  26
OSCODA         CLOUDY    31  25  78 E10       30.51F WCI  22
PELLSTON       CLOUDY    27  19  72 SE8       30.49F WCI  19
ROGERS CITY    CLOUDY    27  20  75 SE5       30.53S WCI  22
TRAVERSE CITY  CLOUDY    34  18  52 E5        30.41F WCI  30
$$
MIZ007>008-015-230600-
EASTERN UPPER MICHIGAN

CITY           SKY/WX    TMP DP  RH WIND       PRES   REMARKS
KINROSS        CLOUDY    23  16  74 E8        30.49F WCI  14
MACKINAC ISLAN CLOUDY    27  20  74 SE12G20   30.48F WCI  17
NEWBERRY       MOCLDY    24  16  72 SE7       30.44F WCI  16
S. S. MARIE    CLOUDY    24  11  57 E5        30.49F WCI  18
MUNISING         N/A     27  21  78 S9        30.40F WCI  18
$$
MIZ004>006-011>014-085-230600-
CENTRAL UPPER MICHIGAN

CITY           SKY/WX    TMP DP  RH WIND       PRES   REMARKS
MANISTIQUE     CLOUDY    27  23  85 E9        30.42F WCI  17
MENOMINEE      CLOUDY    29  26  89 E9        30.37F WCI  20
$$
MIZ001>003-009>011-084-230600-
WESTERN UPPER MICHIGAN

CITY           SKY/WX    TMP DP  RH WIND       PRES   REMARKS
IRON MOUNTAIN  CLOUDY    25  21  85 SE6       30.35F WCI  18
HOUGHTON       CLOUDY    27  15  61 SE7       30.33F WCI  19
COPPER HARBOR    N/A     29  20  69 SW12      30.35F WCI  19
IRONWOOD       LGT SNOW  25  22  88 E6        30.29F FOG     WCI  18
$$

ABBREVIATIONS USED IN REMARKS
   TC - TEMPERATURE IN CELSIUS
  WCI - WIND CHILL INDEX
   HX - HEAT INDEX
  VSB - VISIBILITY





USA.gov is the U.S. government's official web portal to all federal, state and local government web resources and services.